Showing default

GEESAT 3-02, 61012

Orbit data source: Space-Track

GEESAT 3-02, 61012 is a payload satellite owned by GeeSpace (CN) in LEO that was launched on Thu, 05 Sep 2024 UTC via a CHANG ZHENG 6 launch vehicle from the Taiyaun Space Center, China (TSC). Payloads include a variety of satellites, spacecraft, and rockets equipped with specific instruments for various scientific and technological missions. These include communications satellites like Starlink; space stations such as the ISS; scientific satellites like the Hubble; Earth observation satellites from companies like Planet Labs, Umbra, and HawkEye 360; GPS; miniature CubeSats for education and research; and military/defense satellites.

Loading next visibility...
GEESAT 3-02 details
Identifier
61012, 2024-159B
Orbit
LEO
Last TLE update9 hours ago
Origin
Flag of CNGeeSpace (CN / PRC)
ManufacturerTaizhou Xingkong
MissionOperational spacecraft
Bus & MotorGEESAT1, Unknown motor
Mass130 kg wet, 130 kg dry
Launch date (UTC)
2024-09-05 (4 months ago)
Launch vehicle
CHANG ZHENG 6
Launch site
Taiyaun Space Center, China (TSC)
Object type
Payload
Rocket body
Debris
Shape & HBRUnknown
Radar Cross SectionMedium (>0.1 m² and <1 m²)

Expand to show TLE details & history

TLE from 9 hours ago
0 GEESAT 3-02
1 61012U 24159B   25015.11461476  .00006644  00000-0  67521-3 0  9998
2 61012  49.9955 342.5514 0008028  91.2992 268.8869 14.91748974 19626
Epoch: 2025-01-15T02:45Z
Definitive object data (Epoch: 2025-01-15T02:45:02.715Z)
Latitude-0.00004°
Longitude-173.52155°
Altitude593.141 km
Speed7.565 km/s
True Right ascension22h 50m 12s
True Declination0° 00' 00"
Sunlit
Object was in daylight at TLE epoch
Visualization TLE readout
Latitude-46.50412°
Longitude123.04822°
Altitude613.35 km
Speed7.55 km/s
Apparent Right ascension21h 42m 43s
Apparent Declination-53° 31' 33"
Sunlit
Object is in daylight
Visualization observer readout
Local Sidereal Time12:45:06
Azimuth129.48° SE
Elevation-56.617°
Doppler factor1
Orbital elements
Apogee altitude598.84 km
Perigee altitude587.647 km
Semi-major axis6,971.381 km
Eccentricity0.0008028
Inclination49.9955°
RAAN342.5514°
Arg. of periapsis91.2992°
True anomaly268.79493°
Mean anomaly268.8869°
Eccentric anomaly268.84091°
Mean motion3.72876 °/min
BSTAR0.00067521
Orbital period96.55 mins
Loading maneuver chart data...
Loading historical data...
Loading historical data...
Loading historical data...
Loading historical data...
Loading historical data...
Loading historical data...
Loading historical data...

GEESAT 3-02 Visibility forecast

Observer location: undefined°, undefined

Span
Click to sort rows by Start time (UTC) header in descending order
Start Az.
Max El. time (UTC)
Max El. Az.
Max El.
End time (UTC)
End Az.
7 mins2025-01-15 23:48:47.914Z195.438° SSW2025-01-15 23:51:47.914Z140.81° SSE28.876°2025-01-15 23:55:47.914Z72.06° E
7 mins2025-01-16 01:29:47.914Z264.794° W2025-01-16 01:32:47.914Z339.373° N36.448°2025-01-16 01:36:47.914Z48.066° ENE
4 mins2025-01-16 03:12:47.914Z324.963° NNW2025-01-16 03:13:47.914Z343.806° N20.522°2025-01-16 03:16:47.914Z36.807° NE
5 mins2025-01-16 04:53:47.914Z329.865° NNW2025-01-16 04:55:47.914Z7.072° NNE23.541°2025-01-16 04:58:47.914Z63.189° ENE
6 mins2025-01-16 06:34:47.914Z308.83° NW2025-01-16 06:37:47.914Z87.611° E43.261°2025-01-16 06:40:47.914Z119.058° SE
|